This is the latest recevied weather packets stored in our database for station/object N4WFF. If no packets are shown the sender has not sent any weather packets the latest 10 day(s).
| Time | Temp. | Humidity | Pressure | Rain* | Wind** | Luminosity | Snow |
|---|---|---|---|---|---|---|---|
| 1777703755 | 11.67° C | 97% | 1012.6 hPa | 0.25 mm | - | 0 W/m² | - |
| 1777703455 | 11.67° C | 97% | 1012.6 hPa | 0 mm | - | 0 W/m² | - |
| 1777703155 | 11.67° C | 97% | 1012.6 hPa | 0 mm | - | 0 W/m² | - |
| 1777702855 | 11.67° C | 97% | 1012.9 hPa | 0 mm | - | 0 W/m² | - |
| 1777702556 | 11.67° C | 97% | 1013 hPa | 0 mm | - | 0 W/m² | - |
| 1777702255 | 11.67° C | 97% | 1013.2 hPa | 0.25 mm | - | 0 W/m² | - |
| 1777701955 | 11.67° C | 97% | 1013.3 hPa | 1.02 mm | - | 0 W/m² | - |
| 1777701658 | 11.67° C | 97% | 1013.6 hPa | 0.25 mm | - | 0 W/m² | - |
| 1777701355 | 11.67° C | 97% | 1013.7 hPa | 2.54 mm | - | 0 W/m² | - |
| 1777701055 | 11.67° C | 97% | 1013.6 hPa | 0 mm | - | 0 W/m² | - |
| 1777700755 | 11.67° C | 97% | 1013.3 hPa | 0 mm | - | 0 W/m² | - |
| 1777700456 | 11.67° C | 97% | 1013.5 hPa | 0.76 mm | - | 0 W/m² | - |
| 1777700156 | 11.67° C | 97% | 1013 hPa | 0 mm | - | 0 W/m² | - |
| 1777699855 | 11.67° C | 97% | 1012.7 hPa | 3.56 mm | - | 0 W/m² | - |
| 1777699555 | 11.67° C | 97% | 1013.1 hPa | 0.76 mm | - | 0 W/m² | - |
| 1777699255 | 11.67° C | 97% | 1013.4 hPa | 1.02 mm | - | 0 W/m² | - |
| 1777698955 | 11.67° C | 97% | 1013.6 hPa | 2.03 mm | - | 0 W/m² | - |
| 1777698656 | 11.67° C | 97% | 1013.8 hPa | 2.54 mm | - | 0 W/m² | - |
| 1777698355 | 11.67° C | 97% | 1013.3 hPa | 4.06 mm | - | 0 W/m² | - |
| 1777698055 | 12.22° C | 97% | 1013 hPa | 3.81 mm | - | 0 W/m² | - |
| 1777697756 | 12.22° C | 97% | 1013.3 hPa | 8.13 mm | - | 0 W/m² | - |
| 1777697455 | 12.22° C | 97% | 1013.8 hPa | 4.06 mm | - | 0 W/m² | - |
| 1777697156 | 12.22° C | 97% | 1013.6 hPa | 4.83 mm | - | 0 W/m² | - |
| 1777696857 | 12.22° C | 97% | 1013.8 hPa | 3.81 mm | - | 0 W/m² | - |
| 1777696556 | 12.22° C | 97% | 1014.2 hPa | 5.84 mm | - | 0 W/m² | - |
* Rain latest hour (hover to see other rain measurements)
** Current wind speed in m/s (hover to see current wind gust speed)